Location: Hormuz
(27.0871°N, 56.4580°E)
Time: 12:10:41
(UTC+04:30)

ISS - Pass Details

Date: 28 June 2021
Orbit: 419 x 421 km, 51.6° (Epoch: 04 August)

Event Time Altitude Azimuth Distance (km) Brightness Sun altitude
Exits shadow 04:25:45 12° 305° (NW) 1,389 -1.3 -17.1°
Maximum altitude 04:26:39 13° 322° (NW) 1,337 -1.2 -16.9°
Drops below altitude 10° 04:28:15 10° 350° (N) 1,496 -0.6 -16.7°
Sets 04:31:18 0° 21° (NNE) 2,361 1.1 -16.1°
